Orbital Elements at Epoch 2459000.5 (2020-May-31.0) TDB
Reference: JPL 13 (heliocentric ecliptic J2000)
Element | Value | Uncertainty (1-sigma) | Units |
e | .1521436741486827 | 8.4169e-08 | |
a | 2.681133532388013 | 2.7807e-08 | au |
q | 2.273216025887264 | 2.3146e-07 | au |
i | 12.71259556873144 | 1.0971e-05 | deg |
node | 338.6130728429508 | 2.3383e-05 | deg |
peri | 140.2014503012122 | 3.6645e-05 | deg |
M | 207.6908587424687 | 2.7584e-05 | deg |
tp | 2459678.921436436594 (2022-Apr-09.42143644) | 0.00012516 | TDB |
period | 1603.526322193725 4.39 | 2.4946e-05 6.83e-08 | d yr |
n | .2245052014534425 | 3.4927e-09 | deg/d |
Q | 3.089051038888762 | 3.2038e-08 | au |
|
| | Orbit Determination Parameters
Additional Information
|